Simultaneous Nadir Overpasses (SNOs) Predictions

Prediction of SNOs between NOAA-20 and LANDSAT-8 Satellite Orbit:

Table of predicted SNOs for the next 14.0 days since TLE Epoch: 12/7/2019
Index Date (NOAA-20) Time (NOAA-20) Lat,Lon (NOAA-20) SZA (NOAA-20 ) Date (LANDSAT-8) Time (LANDSAT-8) Lat,Lon (LANDSAT-8) SZA (LANDSAT-8 ) Distance(km) Time Diff (sec)
1 12/07/2019 15:05:48 -70.07, 129.79 87.42 12/07/2019 15:06:58 -70.08, 129.74 87.42 2.00 70
2 12/07/2019 15:56:33 70.00, -62.79 92.52 12/07/2019 15:56:25 69.97, -62.76 92.49 2.94 8
3 12/07/2019 16:47:10 -69.65, 105.04 87.83 12/07/2019 16:45:58 -69.70, 104.49 87.79 21.77 72
4 12/10/2019 07:22:43 -70.07,-114.43 87.15 12/10/2019 07:23:27 -70.07,-114.39 87.15 1.69 44
5 12/10/2019 08:13:27 69.94, 53.06 92.74 12/10/2019 08:12:54 69.96, 53.10 92.75 2.40 33
6 12/12/2019 22:49:08 70.78,-167.12 93.82 12/12/2019 22:50:16 70.71,-165.20 93.71 70.74 68
7 12/12/2019 23:39:37 -70.02, 1.42 86.98 12/12/2019 23:39:57 -70.00, 1.40 86.99 1.66 20
8 12/13/2019 00:30:21 69.90, 168.91 92.91 12/13/2019 00:29:24 69.89, 168.89 92.90 1.05 57
9 12/15/2019 15:05:50 70.11, -50.26 93.29 12/15/2019 15:06:56 70.09, -50.23 93.26 2.31 66
10 12/15/2019 15:56:31 -69.97, 117.27 86.86 12/15/2019 15:56:26 -69.99, 117.26 86.84 2.50 5
11 12/15/2019 16:47:09 69.53, -74.77 92.70 12/15/2019 16:45:58 69.60, -75.64 92.78 34.30 71
12 12/18/2019 07:22:43 70.06, 65.58 93.36 12/18/2019 07:23:24 70.07, 65.62 93.35 1.38 41
13 12/18/2019 08:13:25 -69.97,-126.96 86.74 12/18/2019 08:12:54 -69.97,-126.89 86.75 2.72 31
14 12/20/2019 22:49:07 -70.86, 12.77 85.77 12/20/2019 22:50:15 -70.76, 14.87 85.91 77.55 68
15 12/20/2019 23:39:37 70.02,-178.58 93.37 12/20/2019 23:39:53 70.04,-178.54 93.39 2.79 16
16 12/21/2019 00:30:19 -69.92, -11.12 86.73 12/21/2019 00:29:23 -69.94, -11.04 86.71 3.62 56




NCC Satellite Simultaneous Nadir Overpasses (SNOs) Prediction Service
